Time,TemperatureF,DewpointF,PressureIn,WindDirection,WindDirectionDegrees,WindSpeedMPH,WindSpeedGustMPH,Humidity,HourlyPrecipIn,Conditions,Clouds,dailyrainin,SoftwareType,DateUTC
2013-08-25 00:01:00,58.8,44.1,30.47,WSW,238,0.0,0.0,58,0.00,CLR,CLR,0.00,WeatherDisplay:10.34,2013-08-25 04:01:00,
2013-08-25 00:02:00,58.8,44.1,30.47,WSW,238,0.0,0.0,58,0.00,CLR,CLR,0.00,WeatherDisplay:10.34,2013-08-25 04:02:00,
2013-08-25 00:03:00,58.8,43.6,30.47,WSW,238,0.0,0.0,57,0.00,CLR,CLR,0.00,WeatherDisplay:10.34,2013-08-25 04:03:00,
2013-08-25 00:04:00,58.8,43.6,30.47,WSW,239,0.0,0.0,57,0.00,CLR,CLR,0.00,WeatherDisplay:10.34,2013-08-25 04:04:00,
2013-08-25 00:05:00,58.8,43.6,30.47,WSW,238,0.0,0.0,57,0.00,CLR,CLR,0.00,WeatherDisplay:10.34,2013-08-25 04:05:00,
2013-08-25 00:10:00,58.6,43.4,30.47,WSW,239,0.0,0.0,57,0.00,CLR,CLR,0.00,WeatherDisplay:10.34,2013-08-25 04:10:00,
2013-08-25 00:15:00,58.5,43.3,30.47,WSW,238,0.0,0.0,57,0.00,CLR,CLR,0.00,WeatherDisplay:10.34,2013-08-25 04:15:00,
2013-08-25 00:20:00,58.1,42.9,30.48,WSW,239,0.0,0.0,57,0.00,CLR,CLR,0.00,WeatherDisplay:10.34,2013-08-25 04:20:00,
2013-08-25 00:25:00,57.9,42.8,30.48,WSW,238,0.0,0.0,57,0.00,CLR,CLR,0.00,WeatherDisplay:10.34,2013-08-25 04:25:00,
2013-08-25 00:30:00,57.7,42.6,30.48,WSW,238,0.0,0.0,57,0.00,CLR,CLR,0.00,WeatherDisplay:10.34,2013-08-25 04:30:00,
2013-08-25 00:35:00,57.6,42.4,30.47,WSW,238,0.0,0.0,57,0.00,CLR,CLR,0.00,WeatherDisplay:10.34,2013-08-25 04:35:00,
2013-08-25 00:40:00,57.6,42.4,30.48,WSW,239,0.0,0.0,57,0.00,CLR,CLR,0.00,WeatherDisplay:10.34,2013-08-25 04:40:00,
2013-08-25 00:45:00,57.6,42.4,30.47,WSW,238,0.0,0.0,57,0.00,CLR,CLR,0.00,WeatherDisplay:10.34,2013-08-25 04:45:00,
2013-08-25 00:50:00,57.2,42.1,30.47,WSW,238,0.0,0.0,57,0.00,CLR,CLR,0.00,WeatherDisplay:10.34,2013-08-25 04:50:00,
2013-08-25 00:55:00,57.2,42.1,30.48,WSW,238,0.0,0.0,57,0.00,CLR,CLR,0.00,WeatherDisplay:10.34,2013-08-25 04:55:00,
2013-08-25 01:00:00,57.2,42.1,30.47,WSW,239,0.0,0.0,57,0.00,CLR,CLR,0.00,WeatherDisplay:10.34,2013-08-25 05:00:00,
2013-08-25 01:05:00,57.0,41.9,30.47,WSW,238,0.0,0.0,57,0.00,CLR,CLR,0.00,WeatherDisplay:10.34,2013-08-25 05:05:00,
2013-08-25 01:10:00,56.8,41.3,30.47,WSW,239,0.0,0.0,56,0.00,CLR,CLR,0.00,WeatherDisplay:10.34,2013-08-25 05:10:00,
2013-08-25 01:15:00,56.7,41.6,30.47,WSW,238,0.0,0.0,57,0.00,CLR,CLR,0.00,WeatherDisplay:10.34,2013-08-25 05:15:00,
2013-08-25 01:20:00,56.7,42.0,30.47,WSW,239,0.0,0.0,58,0.00,CLR,CLR,0.00,WeatherDisplay:10.34,2013-08-25 05:20:00,
2013-08-25 01:25:00,56.7,42.5,30.47,WSW,238,0.0,0.0,59,0.00,CLR,CLR,0.00,WeatherDisplay:10.34,2013-08-25 05:25:00,
2013-08-25 01:30:00,56.7,42.5,30.47,WSW,238,0.0,0.0,59,0.00,CLR,CLR,0.00,WeatherDisplay:10.34,2013-08-25 05:30:00,
2013-08-25 01:35:00,56.7,42.5,30.47,WSW,239,0.0,0.0,59,0.00,CLR,CLR,0.00,WeatherDisplay:10.34,2013-08-25 05:35:00,
2013-08-25 01:40:00,56.7,42.5,30.47,WSW,238,0.0,0.0,59,0.00,CLR,CLR,0.00,WeatherDisplay:10.34,2013-08-25 05:40:00,
2013-08-25 01:45:00,56.3,42.1,30.47,WSW,239,0.0,0.0,59,0.00,CLR,CLR,0.00,WeatherDisplay:10.34,2013-08-25 05:45:00,
2013-08-25 01:50:00,56.1,42.4,30.47,WSW,239,0.0,0.0,60,0.00,CLR,CLR,0.00,WeatherDisplay:10.34,2013-08-25 05:50:00,
2013-08-25 01:55:00,55.9,42.2,30.47,WSW,239,0.0,0.0,60,0.00,CLR,CLR,0.00,WeatherDisplay:10.34,2013-08-25 05:55:00,
2013-08-25 02:00:00,55.9,42.7,30.47,WSW,239,0.0,0.0,61,0.00,CLR,CLR,0.00,WeatherDisplay:10.34,2013-08-25 06:00:00,
2013-08-25 02:05:00,55.9,42.7,30.47,WSW,239,0.0,0.0,61,0.00,CLR,CLR,0.00,WeatherDisplay:10.34,2013-08-25 06:05:00,
2013-08-25 02:10:00,55.9,43.1,30.47,WSW,239,0.0,0.0,62,0.00,CLR,CLR,0.00,WeatherDisplay:10.34,2013-08-25 06:10:00,
2013-08-25 02:15:00,56.1,43.7,30.47,WSW,238,0.0,0.0,63,0.00,CLR,CLR,0.00,WeatherDisplay:10.34,2013-08-25 06:15:00,
2013-08-25 02:20:00,55.9,44.3,30.47,WSW,238,0.0,0.0,65,0.00,CLR,CLR,0.00,WeatherDisplay:10.34,2013-08-25 06:20:00,
2013-08-25 02:25:00,56.1,44.9,30.47,WSW,239,0.0,0.0,66,0.00,CLR,CLR,0.00,WeatherDisplay:10.34,2013-08-25 06:25:00,
2013-08-25 02:30:00,56.1,45.3,30.47,WSW,239,0.0,0.0,67,0.00,CLR,CLR,0.00,WeatherDisplay:10.34,2013-08-25 06:30:00,
2013-08-25 02:35:00,56.1,45.7,30.47,WSW,239,0.0,0.0,68,0.00,CLR,CLR,0.00,WeatherDisplay:10.34,2013-08-25 06:35:00,
2013-08-25 02:40:00,56.1,46.1,30.47,WSW,238,0.0,0.0,69,0.00,CLR,CLR,0.00,WeatherDisplay:10.34,2013-08-25 06:40:00,
2013-08-25 02:45:00,55.9,46.3,30.47,WSW,238,0.0,0.0,70,0.00,CLR,CLR,0.00,WeatherDisplay:10.34,2013-08-25 06:45:00,
2013-08-25 02:50:00,55.9,46.3,30.47,WSW,239,0.0,0.0,70,0.00,CLR,CLR,0.00,WeatherDisplay:10.34,2013-08-25 06:50:00,
2013-08-25 02:55:00,55.8,46.1,30.47,WSW,238,0.0,0.0,70,0.00,CLR,CLR,0.00,WeatherDisplay:10.34,2013-08-25 06:55:00,
2013-08-25 03:00:00,55.6,45.9,30.47,WSW,238,0.0,0.0,70,0.00,CLR,CLR,0.00,WeatherDisplay:10.34,2013-08-25 07:00:00,
2013-08-25 03:05:00,55.6,46.3,30.47,WSW,238,0.0,0.0,71,0.00,CLR,CLR,0.00,WeatherDisplay:10.34,2013-08-25 07:05:00,
2013-08-25 03:10:00,55.4,46.5,30.47,WSW,239,0.0,0.0,72,0.00,CLR,CLR,0.00,WeatherDisplay:10.34,2013-08-25 07:10:00,
2013-08-25 03:15:00,55.4,46.9,30.47,WSW,239,0.0,0.0,73,0.00,CLR,CLR,0.00,WeatherDisplay:10.34,2013-08-25 07:15:00,
2013-08-25 03:20:00,55.4,46.9,30.47,WSW,239,0.0,0.0,73,0.00,CLR,CLR,0.00,WeatherDisplay:10.34,2013-08-25 07:20:00,
2013-08-25 03:25:00,55.4,47.2,30.47,WSW,238,0.0,0.0,74,0.00,CLR,CLR,0.00,WeatherDisplay:10.34,2013-08-25 07:25:00,
2013-08-25 03:30:00,55.4,47.2,30.47,WSW,238,0.0,0.0,74,0.00,CLR,CLR,0.00,WeatherDisplay:10.34,2013-08-25 07:30:00,
2013-08-25 03:35:00,55.4,47.2,30.47,WSW,239,0.0,0.0,74,0.00,CLR,CLR,0.00,WeatherDisplay:10.34,2013-08-25 07:35:00,
2013-08-25 03:40:00,55.4,47.2,30.47,WSW,239,0.0,0.0,74,0.00,CLR,CLR,0.00,WeatherDisplay:10.34,2013-08-25 07:40:00,
2013-08-25 03:45:00,55.6,47.4,30.47,WSW,239,0.0,0.0,74,0.00,CLR,CLR,0.00,WeatherDisplay:10.34,2013-08-25 07:45:00,
2013-08-25 03:50:00,55.6,47.8,30.47,WSW,238,0.0,0.0,75,0.00,CLR,CLR,0.00,WeatherDisplay:10.34,2013-08-25 07:50:00,
2013-08-25 03:55:00,55.6,47.4,30.47,WSW,238,0.0,0.0,74,0.00,CLR,CLR,0.00,WeatherDisplay:10.34,2013-08-25 07:55:00,
2013-08-25 04:00:00,55.8,48.0,30.47,WSW,238,0.0,0.0,75,0.00,CLR,CLR,0.00,WeatherDisplay:10.34,2013-08-25 08:00:00,
2013-08-25 04:05:00,55.9,48.1,30.47,WSW,239,0.0,0.0,75,0.00,CLR,CLR,0.00,WeatherDisplay:10.34,2013-08-25 08:05:00,
2013-08-25 04:10:00,55.8,47.2,30.47,WSW,239,0.0,0.0,73,0.00,CLR,CLR,0.00,WeatherDisplay:10.34,2013-08-25 08:10:00,
2013-08-25 04:15:00,55.6,46.3,30.47,WSW,238,0.0,0.0,71,0.00,CLR,CLR,0.00,WeatherDisplay:10.34,2013-08-25 08:15:00,
2013-08-25 04:20:00,55.6,46.3,30.47,WSW,239,0.0,0.0,71,0.00,CLR,CLR,0.00,WeatherDisplay:10.34,2013-08-25 08:20:00,
2013-08-25 04:25:00,55.8,46.9,30.47,WSW,238,0.0,0.0,72,0.00,CLR,CLR,0.00,WeatherDisplay:10.34,2013-08-25 08:25:00,
2013-08-25 04:30:00,55.8,46.9,30.47,WSW,239,0.0,0.0,72,0.00,CLR,CLR,0.00,WeatherDisplay:10.34,2013-08-25 08:30:00,
2013-08-25 04:35:00,55.8,46.9,30.48,WSW,239,0.0,0.0,72,0.00,CLR,CLR,0.00,WeatherDisplay:10.34,2013-08-25 08:35:00,
2013-08-25 04:40:00,55.8,46.9,30.48,WSW,239,0.0,0.0,72,0.00,CLR,CLR,0.00,WeatherDisplay:10.34,2013-08-25 08:40:00,
2013-08-25 04:45:00,55.8,46.9,30.48,WSW,239,0.0,0.0,72,0.00,CLR,CLR,0.00,WeatherDisplay:10.34,2013-08-25 08:45:00,
2013-08-25 04:50:00,55.6,46.7,30.48,WSW,238,0.0,0.0,72,0.00,CLR,CLR,0.00,WeatherDisplay:10.34,2013-08-25 08:50:00,
2013-08-25 04:55:00,55.6,46.7,30.48,WSW,239,0.0,0.0,72,0.00,CLR,CLR,0.00,WeatherDisplay:10.34,2013-08-25 08:55:00,
2013-08-25 05:00:00,55.6,46.7,30.48,WSW,239,0.0,0.0,72,0.00,CLR,CLR,0.00,WeatherDisplay:10.34,2013-08-25 09:00:00,
2013-08-25 05:05:00,55.6,46.7,30.48,WSW,239,0.0,0.0,72,0.00,CLR,CLR,0.00,WeatherDisplay:10.34,2013-08-25 09:05:00,
2013-08-25 05:10:00,55.6,46.7,30.48,WSW,239,0.0,0.0,72,0.00,CLR,CLR,0.00,WeatherDisplay:10.34,2013-08-25 09:10:00,
2013-08-25 05:15:00,55.6,47.1,30.48,WSW,240,0.0,0.0,73,0.00,CLR,CLR,0.00,WeatherDisplay:10.34,2013-08-25 09:15:00,
2013-08-25 05:20:00,55.6,47.1,30.50,WSW,240,0.0,0.0,73,0.00,CLR,CLR,0.00,WeatherDisplay:10.34,2013-08-25 09:20:00,
2013-08-25 05:25:00,55.6,47.4,30.50,WSW,240,0.0,0.0,74,0.00,CLR,CLR,0.00,WeatherDisplay:10.34,2013-08-25 09:25:00,
2013-08-25 05:30:00,55.4,47.2,30.50,WSW,238,0.0,0.0,74,0.00,CLR,CLR,0.00,WeatherDisplay:10.34,2013-08-25 09:30:00,
2013-08-25 05:35:00,55.6,47.4,30.51,WSW,247,0.0,0.0,74,0.00,CLR,CLR,0.00,WeatherDisplay:10.34,2013-08-25 09:35:00,
2013-08-25 05:40:00,55.4,47.2,30.51,WSW,247,0.0,0.0,74,0.00,CLR,CLR,0.00,WeatherDisplay:10.34,2013-08-25 09:40:00,
2013-08-25 05:45:00,55.4,47.2,30.51,WSW,256,0.0,0.0,74,0.00,CLR,CLR,0.00,WeatherDisplay:10.34,2013-08-25 09:45:00,
2013-08-25 05:50:00,55.4,47.6,30.51,WSW,256,0.0,0.0,75,0.00,CLR,CLR,0.00,WeatherDisplay:10.34,2013-08-25 09:50:00,
2013-08-25 05:55:00,55.4,47.6,30.51,WSW,256,0.0,0.0,75,0.00,CLR,CLR,0.00,WeatherDisplay:10.34,2013-08-25 09:55:00,
2013-08-25 06:00:00,55.4,47.6,30.51,WSW,256,0.0,0.0,75,0.00,CLR,CLR,0.00,WeatherDisplay:10.34,2013-08-25 10:00:00,
2013-08-25 06:05:00,55.4,47.6,30.51,WSW,256,0.0,0.0,75,0.00,CLR,CLR,0.00,WeatherDisplay:10.34,2013-08-25 10:05:00,
2013-08-25 06:10:00,55.4,47.6,30.51,WSW,256,0.0,0.0,75,0.00,CLR,CLR,0.00,WeatherDisplay:10.34,2013-08-25 10:10:00,
2013-08-25 06:15:00,55.0,46.9,30.51,WSW,256,0.0,0.0,74,0.00,CLR,CLR,0.00,WeatherDisplay:10.34,2013-08-25 10:15:00,
2013-08-25 06:21:00,55.0,46.9,30.51,WSW,256,0.0,0.0,74,0.00,CLR,CLR,0.00,WeatherDisplay:10.34,2013-08-25 10:21:00,
2013-08-25 06:26:00,54.9,46.7,30.51,WSW,256,0.0,0.0,74,0.00,CLR,CLR,0.00,WeatherDisplay:10.34,2013-08-25 10:26:00,
2013-08-25 06:31:00,54.7,46.6,30.51,WSW,256,0.0,0.0,74,0.00,CLR,CLR,0.00,WeatherDisplay:10.34,2013-08-25 10:31:00,
2013-08-25 06:36:00,54.5,46.4,30.51,WSW,256,0.0,0.0,74,0.00,CLR,CLR,0.00,WeatherDisplay:10.34,2013-08-25 10:36:00,
2013-08-25 06:41:00,54.5,46.4,30.51,WSW,256,0.0,0.0,74,0.00,CLR,CLR,0.00,WeatherDisplay:10.34,2013-08-25 10:41:00,
2013-08-25 06:46:00,54.7,46.9,30.51,WSW,256,0.0,0.0,75,0.00,CLR,CLR,0.00,WeatherDisplay:10.34,2013-08-25 10:46:00,
2013-08-25 06:51:00,54.5,46.7,30.51,WSW,256,0.0,0.0,75,0.00,CLR,CLR,0.00,WeatherDisplay:10.34,2013-08-25 10:51:00,
2013-08-25 06:56:00,54.5,46.7,30.51,WSW,256,0.0,0.0,75,0.00,CLR,CLR,0.00,WeatherDisplay:10.34,2013-08-25 10:56:00,
2013-08-25 07:01:00,54.5,46.7,30.51,WSW,256,0.0,0.0,75,0.00,CLR,CLR,0.00,WeatherDisplay:10.34,2013-08-25 11:01:00,
2013-08-25 07:06:00,54.5,46.7,30.51,WSW,256,0.0,0.0,75,0.00,FEW,FEW,0.00,WeatherDisplay:10.34,2013-08-25 11:06:00,
2013-08-25 07:11:00,54.5,47.1,30.51,WSW,256,0.0,0.0,76,0.00,FEW,FEW,0.00,WeatherDisplay:10.34,2013-08-25 11:11:00,
2013-08-25 07:16:00,54.7,47.6,30.51,WSW,256,0.0,0.0,77,0.00,FEW,FEW,0.00,WeatherDisplay:10.34,2013-08-25 11:16:00,
2013-08-25 07:21:00,54.9,47.8,30.51,WSW,256,0.0,0.0,77,0.00,FEW,FEW,0.00,WeatherDisplay:10.34,2013-08-25 11:21:00,
2013-08-25 07:26:00,55.0,48.3,30.51,WSW,256,0.0,0.0,78,0.00,FEW,FEW,0.00,WeatherDisplay:10.34,2013-08-25 11:26:00,
2013-08-25 07:31:00,55.4,49.0,30.51,WSW,256,0.0,0.0,79,0.00,FEW,FEW,0.00,WeatherDisplay:10.34,2013-08-25 11:31:00,
2013-08-25 07:36:00,55.6,49.2,30.51,WSW,256,0.0,3.0,79,0.00,FEW,FEW,0.00,WeatherDisplay:10.34,2013-08-25 11:36:00,
2013-08-25 07:41:00,55.9,49.5,30.51,WSW,256,0.0,0.0,79,0.00,FEW,FEW,0.00,WeatherDisplay:10.34,2013-08-25 11:41:00,
2013-08-25 07:46:00,56.1,50.0,30.51,WSW,256,0.0,2.0,80,0.00,FEW,FEW,0.00,WeatherDisplay:10.34,2013-08-25 11:46:00,
2013-08-25 07:51:00,56.3,49.9,30.51,WSW,256,0.0,0.0,79,0.00,FEW,FEW,0.00,WeatherDisplay:10.34,2013-08-25 11:51:00,
2013-08-25 07:56:00,56.5,50.0,30.51,WSW,256,0.0,0.0,79,0.00,FEW,FEW,0.00,WeatherDisplay:10.34,2013-08-25 11:56:00,
2013-08-25 08:01:00,56.8,50.4,30.51,WSW,256,0.0,0.0,79,0.00,FEW,FEW,0.00,WeatherDisplay:10.34,2013-08-25 12:01:00,
2013-08-25 08:06:00,57.0,50.6,30.51,WSW,256,0.0,0.0,79,0.00,BKN,BKN,0.00,WeatherDisplay:10.34,2013-08-25 12:06:00,
2013-08-25 08:11:00,57.4,50.6,30.51,WSW,256,0.0,0.0,78,0.00,BKN,BKN,0.00,WeatherDisplay:10.34,2013-08-25 12:11:00,
2013-08-25 08:16:00,57.6,50.8,30.51,WSW,256,0.0,0.0,78,0.00,BKN,BKN,0.00,WeatherDisplay:10.34,2013-08-25 12:16:00,
2013-08-25 08:21:00,57.7,50.9,30.51,WSW,256,0.0,0.0,78,0.00,BKN,BKN,0.00,WeatherDisplay:10.34,2013-08-25 12:21:00,
2013-08-25 08:26:00,58.1,50.9,30.51,WSW,255,3.0,5.0,77,0.00,BKN,BKN,0.00,WeatherDisplay:10.34,2013-08-25 12:26:00,
2013-08-25 08:31:00,58.5,51.3,30.51,WSW,255,0.0,2.0,77,0.00,BKN,BKN,0.00,WeatherDisplay:10.34,2013-08-25 12:31:00,
2013-08-25 08:36:00,58.8,51.3,30.51,NW,313,3.0,3.0,76,0.00,BKN,BKN,0.00,WeatherDisplay:10.34,2013-08-25 12:36:00,
2013-08-25 08:41:00,59.2,51.3,30.51,NW,312,0.0,0.0,75,0.00,BKN,BKN,0.00,WeatherDisplay:10.34,2013-08-25 12:41:00,
2013-08-25 08:46:00,59.4,51.1,30.51,WSW,258,4.0,5.0,74,0.00,BKN,BKN,0.00,WeatherDisplay:10.34,2013-08-25 12:46:00,
2013-08-25 08:51:00,59.9,51.6,30.51,West,274,4.0,4.0,74,0.00,BKN,BKN,0.00,WeatherDisplay:10.34,2013-08-25 12:51:00,
2013-08-25 08:56:00,60.1,51.4,30.51,West,274,0.0,3.0,73,0.00,BKN,BKN,0.00,WeatherDisplay:10.34,2013-08-25 12:56:00,
2013-08-25 09:01:00,60.4,51.7,30.51,NE,34,3.0,5.0,73,0.00,BKN,BKN,0.00,WeatherDisplay:10.34,2013-08-25 13:01:00,
2013-08-25 09:06:00,60.6,51.5,30.51,NE,34,0.0,3.0,72,0.00,CLR,CLR,0.00,WeatherDisplay:10.34,2013-08-25 13:06:00,
2013-08-25 09:11:00,61.0,51.9,30.51,NE,35,3.0,3.0,72,0.00,CLR,CLR,0.00,WeatherDisplay:10.34,2013-08-25 13:11:00,
2013-08-25 09:16:00,61.2,52.1,30.51,NE,34,0.0,3.0,72,0.00,CLR,CLR,0.00,WeatherDisplay:10.34,2013-08-25 13:16:00,
2013-08-25 09:21:00,61.5,52.4,30.51,NNE,32,0.0,3.0,72,0.00,CLR,CLR,0.00,WeatherDisplay:10.34,2013-08-25 13:21:00,
2013-08-25 09:26:00,61.7,52.2,30.51,NNE,31,3.0,3.0,71,0.00,CLR,CLR,0.00,WeatherDisplay:10.34,2013-08-25 13:26:00,
2013-08-25 09:31:00,62.1,52.5,30.51,NNW,347,4.0,5.0,71,0.00,CLR,CLR,0.00,WeatherDisplay:10.34,2013-08-25 13:31:00,
2013-08-25 09:36:00,62.6,52.7,30.51,North,2,4.0,6.0,70,0.00,CLR,CLR,0.00,WeatherDisplay:10.34,2013-08-25 13:36:00,
2013-08-25 09:41:00,62.8,52.5,30.51,North,9,4.0,7.0,69,0.00,CLR,CLR,0.00,WeatherDisplay:10.34,2013-08-25 13:41:00,
2013-08-25 09:46:00,63.1,52.4,30.51,North,9,0.0,3.0,68,0.00,CLR,CLR,0.00,WeatherDisplay:10.34,2013-08-25 13:46:00,
2013-08-25 09:52:00,63.3,52.2,30.51,WNW,299,3.0,3.0,67,0.00,CLR,CLR,0.00,WeatherDisplay:10.34,2013-08-25 13:52:00,
2013-08-25 09:57:00,63.5,51.9,30.51,North,4,0.0,3.0,66,0.00,CLR,CLR,0.00,WeatherDisplay:10.34,2013-08-25 13:57:00,
2013-08-25 10:02:00,64.0,51.6,30.51,South,190,3.0,5.0,64,0.00,CLR,CLR,0.00,WeatherDisplay:10.34,2013-08-25 14:02:00,
2013-08-25 10:07:00,64.6,51.7,30.51,South,186,5.0,7.0,63,0.00,CLR,CLR,0.00,WeatherDisplay:10.34,2013-08-25 14:07:00,
2013-08-25 10:12:00,64.9,50.7,30.51,South,185,4.0,6.0,60,0.00,CLR,CLR,0.00,WeatherDisplay:10.34,2013-08-25 14:12:00,
2013-08-25 10:17:00,65.5,48.9,30.51,SSE,164,0.0,0.0,55,0.00,CLR,CLR,0.00,WeatherDisplay:10.34,2013-08-25 14:17:00,
2013-08-25 10:22:00,65.8,49.2,30.51,SE,135,4.0,6.0,55,0.00,CLR,CLR,0.00,WeatherDisplay:10.34,2013-08-25 14:22:00,
2013-08-25 10:27:00,66.2,48.6,30.50,South,180,4.0,6.0,53,0.00,CLR,CLR,0.00,WeatherDisplay:10.34,2013-08-25 14:27:00,
2013-08-25 10:32:00,66.4,48.7,30.50,WNW,301,3.0,3.0,53,0.00,CLR,CLR,0.00,WeatherDisplay:10.34,2013-08-25 14:32:00,
2013-08-25 10:37:00,66.4,48.2,30.50,SSW,193,4.0,6.0,52,0.00,CLR,CLR,0.00,WeatherDisplay:10.34,2013-08-25 14:37:00,
2013-08-25 10:42:00,66.6,47.9,30.50,West,259,5.0,7.0,51,0.00,CLR,CLR,0.00,WeatherDisplay:10.34,2013-08-25 14:42:00,
2013-08-25 10:47:00,67.1,48.4,30.50,WSW,241,4.0,6.0,51,0.00,CLR,CLR,0.00,WeatherDisplay:10.34,2013-08-25 14:47:00,
2013-08-25 10:52:00,67.1,48.4,30.50,North,351,4.0,5.0,51,0.00,CLR,CLR,0.00,WeatherDisplay:10.34,2013-08-25 14:52:00,
2013-08-25 10:57:00,67.1,48.9,30.50,SSE,160,3.0,3.0,52,0.00,CLR,CLR,0.00,WeatherDisplay:10.34,2013-08-25 14:57:00,
2013-08-25 11:02:00,67.3,46.4,30.47,NNE,27,4.0,6.0,47,0.00,CLR,CLR,0.00,WeatherDisplay:10.34,2013-08-25 15:02:00,
2013-08-25 11:07:00,67.5,46.5,30.47,North,5,3.0,3.0,47,0.00,CLR,CLR,0.00,WeatherDisplay:10.34,2013-08-25 15:07:00,
2013-08-25 11:12:00,67.6,44.9,30.47,NNE,21,4.0,6.0,44,0.00,CLR,CLR,0.00,WeatherDisplay:10.34,2013-08-25 15:12:00,
2013-08-25 11:17:00,68.0,44.7,30.47,WNW,292,5.0,6.0,43,0.00,CLR,CLR,0.00,WeatherDisplay:10.34,2013-08-25 15:17:00,
2013-08-25 11:22:00,68.0,44.0,30.47,ENE,62,5.0,7.0,42,0.00,CLR,CLR,0.00,WeatherDisplay:10.34,2013-08-25 15:22:00,
2013-08-25 11:27:00,68.4,45.0,30.47,WSW,256,5.0,7.0,43,0.00,CLR,CLR,0.00,WeatherDisplay:10.34,2013-08-25 15:27:00,
2013-08-25 11:32:00,68.7,44.1,30.47,West,274,5.0,7.0,41,0.00,CLR,CLR,0.00,WeatherDisplay:10.34,2013-08-25 15:32:00,
2013-08-25 11:37:00,69.1,42.4,30.47,North,2,0.0,3.0,38,0.00,CLR,CLR,0.00,WeatherDisplay:10.34,2013-08-25 15:37:00,
2013-08-25 11:42:00,69.3,43.2,30.47,South,176,5.0,7.0,39,0.00,CLR,CLR,0.00,WeatherDisplay:10.34,2013-08-25 15:42:00,
2013-08-25 11:47:00,69.4,43.4,30.47,NE,35,4.0,7.0,39,0.00,CLR,CLR,0.00,WeatherDisplay:10.34,2013-08-25 15:47:00,
2013-08-25 11:52:00,69.6,43.6,30.47,West,261,6.0,9.0,39,0.00,CLR,CLR,0.00,WeatherDisplay:10.34,2013-08-25 15:52:00,
2013-08-25 11:57:00,70.0,41.8,30.47,SW,229,6.0,9.0,36,0.00,CLR,CLR,0.00,WeatherDisplay:10.34,2013-08-25 15:57:00,
2013-08-25 12:02:00,70.0,41.8,30.47,NNE,29,3.0,6.0,36,0.00,CLR,CLR,0.00,WeatherDisplay:10.34,2013-08-25 16:02:00,
2013-08-25 12:07:00,69.8,40.2,30.47,NNW,333,6.0,12.0,34,0.00,CLR,CLR,0.00,WeatherDisplay:10.34,2013-08-25 16:07:00,
2013-08-25 12:13:00,70.0,40.3,30.47,South,187,3.0,5.0,34,0.00,CLR,CLR,0.00,WeatherDisplay:10.34,2013-08-25 16:13:00,
2013-08-25 12:18:00,70.0,40.3,30.47,NW,310,3.0,7.0,34,0.00,CLR,CLR,0.00,WeatherDisplay:10.34,2013-08-25 16:18:00,
2013-08-25 12:23:00,70.2,39.7,30.47,North,351,3.0,6.0,33,0.00,CLR,CLR,0.00,WeatherDisplay:10.34,2013-08-25 16:23:00,
2013-08-25 12:28:00,70.2,39.7,30.47,WSW,250,5.0,8.0,33,0.00,CLR,CLR,0.00,WeatherDisplay:10.34,2013-08-25 16:28:00,
2013-08-25 12:33:00,70.5,40.0,30.44,NE,36,4.0,7.0,33,0.00,CLR,CLR,0.00,WeatherDisplay:10.34,2013-08-25 16:33:00,
2013-08-25 12:38:00,70.5,40.0,30.44,North,351,4.0,7.0,33,0.00,CLR,CLR,0.00,WeatherDisplay:10.34,2013-08-25 16:38:00,
2013-08-25 12:43:00,70.7,39.4,30.44,NE,49,3.0,7.0,32,0.00,CLR,CLR,0.00,WeatherDisplay:10.34,2013-08-25 16:43:00,
2013-08-25 12:48:00,70.9,39.5,30.44,NNW,346,5.0,7.0,32,0.00,CLR,CLR,0.00,WeatherDisplay:10.34,2013-08-25 16:48:00,
2013-08-25 12:53:00,71.1,39.7,30.44,NNE,25,4.0,9.0,32,0.00,CLR,CLR,0.00,WeatherDisplay:10.34,2013-08-25 16:53:00,
2013-08-25 12:58:00,71.1,39.7,30.44,NNE,12,4.0,10.0,32,0.00,CLR,CLR,0.00,WeatherDisplay:10.34,2013-08-25 16:58:00,
2013-08-25 13:03:00,70.9,39.5,30.44,West,262,6.0,9.0,32,0.00,CLR,CLR,0.00,WeatherDisplay:10.34,2013-08-25 17:03:00,
2013-08-25 13:08:00,71.2,39.9,30.44,NE,35,0.0,7.0,32,0.00,CLR,CLR,0.00,WeatherDisplay:10.34,2013-08-25 17:08:00,
2013-08-25 13:13:00,71.4,40.8,30.44,East,94,3.0,5.0,33,0.00,CLR,CLR,0.00,WeatherDisplay:10.34,2013-08-25 17:13:00,
2013-08-25 13:18:00,71.6,41.0,30.44,NNE,13,3.0,5.0,33,0.00,CLR,CLR,0.00,WeatherDisplay:10.34,2013-08-25 17:18:00,
2013-08-25 13:23:00,71.8,41.9,30.44,NE,40,3.0,5.0,34,0.00,CLR,CLR,0.00,WeatherDisplay:10.34,2013-08-25 17:23:00,
2013-08-25 13:28:00,72.0,41.3,30.44,NE,39,5.0,7.0,33,0.00,CLR,CLR,0.00,WeatherDisplay:10.34,2013-08-25 17:28:00,
2013-08-25 13:33:00,72.1,41.4,30.44,North,7,0.0,3.0,33,0.00,CLR,CLR,0.00,WeatherDisplay:10.34,2013-08-25 17:33:00,
2013-08-25 13:38:00,72.1,41.4,30.44,WSW,250,3.0,9.0,33,0.00,CLR,CLR,0.00,WeatherDisplay:10.34,2013-08-25 17:38:00,
2013-08-25 13:43:00,72.3,41.6,30.44,North,5,4.0,5.0,33,0.00,CLR,CLR,0.00,WeatherDisplay:10.34,2013-08-25 17:43:00,
2013-08-25 13:48:00,72.5,41.7,30.44,WSW,254,5.0,12.0,33,0.00,CLR,CLR,0.00,WeatherDisplay:10.34,2013-08-25 17:48:00,
2013-08-25 13:53:00,72.7,41.1,30.44,North,3,3.0,7.0,32,0.00,CLR,CLR,0.00,WeatherDisplay:10.34,2013-08-25 17:53:00,
2013-08-25 13:58:00,72.9,40.4,30.44,North,0,3.0,9.0,31,0.00,CLR,CLR,0.00,WeatherDisplay:10.34,2013-08-25 17:58:00,
2013-08-25 14:03:00,72.7,40.3,30.44,SW,219,4.0,7.0,31,0.00,CLR,CLR,0.00,WeatherDisplay:10.34,2013-08-25 18:03:00,
2013-08-25 14:08:00,73.0,41.4,30.44,SSW,196,5.0,8.0,32,0.00,CLR,CLR,0.00,WeatherDisplay:10.34,2013-08-25 18:08:00,
2013-08-25 14:13:00,73.0,40.6,30.44,West,272,4.0,8.0,31,0.00,CLR,CLR,0.00,WeatherDisplay:10.34,2013-08-25 18:13:00,
2013-08-25 14:18:00,73.0,40.6,30.44,NW,325,4.0,8.0,31,0.00,CLR,CLR,0.00,WeatherDisplay:10.34,2013-08-25 18:18:00,
2013-08-25 14:23:00,73.2,40.8,30.44,NE,41,4.0,8.0,31,0.00,CLR,CLR,0.00,WeatherDisplay:10.34,2013-08-25 18:23:00,
2013-08-25 14:28:00,73.4,40.9,30.44,WNW,283,4.0,6.0,31,0.00,CLR,CLR,0.00,WeatherDisplay:10.34,2013-08-25 18:28:00,
2013-08-25 14:33:00,73.8,41.2,30.44,SE,130,3.0,5.0,31,0.00,CLR,CLR,0.00,WeatherDisplay:10.34,2013-08-25 18:33:00,
2013-08-25 14:38:00,73.8,41.2,30.44,NNW,329,6.0,8.0,31,0.00,CLR,CLR,0.00,WeatherDisplay:10.34,2013-08-25 18:38:00,
2013-08-25 14:43:00,73.8,41.2,30.44,NNE,27,4.0,8.0,31,0.00,CLR,CLR,0.00,WeatherDisplay:10.34,2013-08-25 18:43:00,
2013-08-25 14:48:00,73.6,40.2,30.44,West,280,5.0,7.0,30,0.00,CLR,CLR,0.00,WeatherDisplay:10.34,2013-08-25 18:48:00,
2013-08-25 14:53:00,73.4,40.9,30.44,WSW,258,4.0,9.0,31,0.00,CLR,CLR,0.00,WeatherDisplay:10.34,2013-08-25 18:53:00,
2013-08-25 14:58:00,73.6,41.1,30.44,SSE,148,4.0,7.0,31,0.00,CLR,CLR,0.00,WeatherDisplay:10.34,2013-08-25 18:58:00,
2013-08-25 15:03:00,73.8,41.2,30.41,South,172,5.0,7.0,31,0.00,CLR,CLR,0.00,WeatherDisplay:10.34,2013-08-25 19:03:00,
2013-08-25 15:08:00,73.6,41.1,30.41,North,6,6.0,9.0,31,0.00,CLR,CLR,0.00,WeatherDisplay:10.34,2013-08-25 19:08:00,
2013-08-25 15:13:00,73.6,41.1,30.41,SSW,207,3.0,5.0,31,0.00,CLR,CLR,0.00,WeatherDisplay:10.34,2013-08-25 19:13:00,
2013-08-25 15:18:00,73.8,41.2,30.41,West,262,5.0,9.0,31,0.00,CLR,CLR,0.00,WeatherDisplay:10.34,2013-08-25 19:18:00,
2013-08-25 15:23:00,73.9,42.2,30.41,WNW,292,0.0,3.0,32,0.00,CLR,CLR,0.00,WeatherDisplay:10.34,2013-08-25 19:23:00,
2013-08-25 15:28:00,73.9,41.4,30.41,WNW,291,4.0,8.0,31,0.00,CLR,CLR,0.00,WeatherDisplay:10.34,2013-08-25 19:28:00,
2013-08-25 15:33:00,73.9,41.4,30.41,West,270,3.0,5.0,31,0.00,CLR,CLR,0.00,WeatherDisplay:10.34,2013-08-25 19:33:00,
2013-08-25 15:38:00,73.8,41.2,30.41,WNW,283,5.0,6.0,31,0.00,CLR,CLR,0.00,WeatherDisplay:10.34,2013-08-25 19:38:00,
2013-08-25 15:43:00,73.8,41.2,30.41,South,188,4.0,10.0,31,0.00,CLR,CLR,0.00,WeatherDisplay:10.34,2013-08-25 19:43:00,
2013-08-25 15:48:00,73.8,41.2,30.41,WSW,244,4.0,6.0,31,0.00,CLR,CLR,0.00,WeatherDisplay:10.34,2013-08-25 19:48:00,
2013-08-25 15:53:00,73.8,41.2,30.41,WSW,247,3.0,7.0,31,0.00,CLR,CLR,0.00,WeatherDisplay:10.34,2013-08-25 19:53:00,
2013-08-25 15:58:00,73.8,41.2,30.41,West,275,4.0,9.0,31,0.00,CLR,CLR,0.00,WeatherDisplay:10.34,2013-08-25 19:58:00,
2013-08-25 16:03:00,73.8,41.2,30.41,WSW,248,4.0,6.0,31,0.00,CLR,CLR,0.00,WeatherDisplay:10.34,2013-08-25 20:03:00,
2013-08-25 16:08:00,73.8,40.4,30.41,North,2,3.0,6.0,30,0.00,CLR,CLR,0.00,WeatherDisplay:10.34,2013-08-25 20:08:00,
2013-08-25 16:13:00,73.6,41.1,30.41,West,275,3.0,3.0,31,0.00,CLR,CLR,0.00,WeatherDisplay:10.34,2013-08-25 20:13:00,
2013-08-25 16:18:00,73.6,41.1,30.41,South,171,0.0,3.0,31,0.00,CLR,CLR,0.00,WeatherDisplay:10.34,2013-08-25 20:18:00,
2013-08-25 16:23:00,73.6,41.1,30.41,NNE,30,0.0,6.0,31,0.00,CLR,CLR,0.00,WeatherDisplay:10.34,2013-08-25 20:23:00,
2013-08-25 16:28:00,73.4,40.9,30.41,SSW,211,3.0,5.0,31,0.00,CLR,CLR,0.00,WeatherDisplay:10.34,2013-08-25 20:28:00,
2013-08-25 16:33:00,73.4,40.9,30.38,WSW,252,3.0,5.0,31,0.00,CLR,CLR,0.00,WeatherDisplay:10.34,2013-08-25 20:33:00,
2013-08-25 16:38:00,73.2,40.8,30.38,WSW,253,3.0,0.0,31,0.00,CLR,CLR,0.00,WeatherDisplay:10.34,2013-08-25 20:38:00,
2013-08-25 16:43:00,73.2,40.8,30.38,WSW,257,3.0,5.0,31,0.00,CLR,CLR,0.00,WeatherDisplay:10.34,2013-08-25 20:43:00,
2013-08-25 16:48:00,73.2,41.6,30.38,WSW,246,0.0,0.0,32,0.00,CLR,CLR,0.00,WeatherDisplay:10.34,2013-08-25 20:48:00,
2013-08-25 16:53:00,73.2,42.4,30.38,NW,312,3.0,3.0,33,0.00,CLR,CLR,0.00,WeatherDisplay:10.34,2013-08-25 20:53:00,
2013-08-25 16:58:00,73.0,43.0,30.38,SW,224,5.0,8.0,34,0.00,CLR,CLR,0.00,WeatherDisplay:10.34,2013-08-25 20:58:00,
2013-08-25 17:03:00,73.2,41.6,30.38,West,262,3.0,3.0,32,0.00,CLR,CLR,0.00,WeatherDisplay:10.34,2013-08-25 21:03:00,
2013-08-25 17:08:00,73.4,41.7,30.38,North,11,3.0,3.0,32,0.00,CLR,CLR,0.00,WeatherDisplay:10.34,2013-08-25 21:08:00,
2013-08-25 17:13:00,73.6,41.9,30.38,WSW,249,4.0,6.0,32,0.00,CLR,CLR,0.00,WeatherDisplay:10.34,2013-08-25 21:13:00,
2013-08-25 17:18:00,73.8,42.9,30.38,West,266,3.0,3.0,33,0.00,CLR,CLR,0.00,WeatherDisplay:10.34,2013-08-25 21:18:00,
2013-08-25 17:23:00,73.6,41.9,30.38,WSW,239,4.0,7.0,32,0.00,CLR,CLR,0.00,WeatherDisplay:10.34,2013-08-25 21:23:00,
2013-08-25 17:28:00,73.6,41.9,30.38,WNW,299,4.0,7.0,32,0.00,CLR,CLR,0.00,WeatherDisplay:10.34,2013-08-25 21:28:00,
2013-08-25 17:33:00,73.6,41.9,30.38,West,274,3.0,3.0,32,0.00,CLR,CLR,0.00,WeatherDisplay:10.34,2013-08-25 21:33:00,
2013-08-25 17:38:00,73.4,41.7,30.38,SW,229,4.0,6.0,32,0.00,CLR,CLR,0.00,WeatherDisplay:10.34,2013-08-25 21:38:00,
2013-08-25 17:43:00,73.2,42.4,30.38,NNW,341,0.0,2.0,33,0.00,CLR,CLR,0.00,WeatherDisplay:10.34,2013-08-25 21:43:00,
2013-08-25 17:48:00,73.0,44.5,30.35,WNW,286,4.0,7.0,36,0.00,CLR,CLR,0.00,WeatherDisplay:10.34,2013-08-25 21:48:00,
2013-08-25 17:53:00,72.9,43.6,30.35,South,176,4.0,5.0,35,0.00,CLR,CLR,0.00,WeatherDisplay:10.34,2013-08-25 21:53:00,
2013-08-25 17:58:00,72.7,43.4,30.35,WNW,298,3.0,8.0,35,0.00,CLR,CLR,0.00,WeatherDisplay:10.34,2013-08-25 21:58:00,
2013-08-25 18:03:00,72.5,43.3,30.35,West,264,0.0,3.0,35,0.00,CLR,CLR,0.00,WeatherDisplay:10.34,2013-08-25 22:03:00,
2013-08-25 18:08:00,72.1,45.8,30.35,West,264,0.0,0.0,39,0.00,CLR,CLR,0.00,WeatherDisplay:10.34,2013-08-25 22:08:00,
2013-08-25 18:13:00,71.4,47.1,30.35,West,264,0.0,3.0,42,0.00,CLR,CLR,0.00,WeatherDisplay:10.34,2013-08-25 22:13:00,
2013-08-25 18:18:00,70.7,47.1,30.35,West,265,0.0,0.0,43,0.00,CLR,CLR,0.00,WeatherDisplay:10.34,2013-08-25 22:18:00,
2013-08-25 18:23:00,70.2,47.2,30.35,West,264,0.0,0.0,44,0.00,CLR,CLR,0.00,WeatherDisplay:10.34,2013-08-25 22:23:00,
2013-08-25 18:28:00,69.6,47.3,30.35,West,265,0.0,0.0,45,0.00,CLR,CLR,0.00,WeatherDisplay:10.34,2013-08-25 22:28:00,
2013-08-25 18:33:00,69.3,47.6,30.35,West,264,0.0,0.0,46,0.00,CLR,CLR,0.00,WeatherDisplay:10.34,2013-08-25 22:33:00,
2013-08-25 18:38:00,68.9,48.4,30.35,West,265,0.0,0.0,48,0.00,CLR,CLR,0.00,WeatherDisplay:10.34,2013-08-25 22:38:00,
2013-08-25 18:43:00,68.5,49.2,30.35,West,265,0.0,0.0,50,0.00,CLR,CLR,0.00,WeatherDisplay:10.34,2013-08-25 22:43:00,
2013-08-25 18:48:00,68.2,49.4,30.35,West,265,0.0,0.0,51,0.00,CLR,CLR,0.00,WeatherDisplay:10.34,2013-08-25 22:48:00,
2013-08-25 18:53:00,67.8,49.0,30.36,West,265,0.0,0.0,51,0.00,CLR,CLR,0.00,WeatherDisplay:10.34,2013-08-25 22:53:00,
2013-08-25 18:58:00,67.6,49.4,30.36,West,265,0.0,0.0,52,0.00,CLR,CLR,0.00,WeatherDisplay:10.34,2013-08-25 22:58:00,
2013-08-25 19:03:00,67.3,50.1,30.36,West,266,0.0,0.0,54,0.00,CLR,CLR,0.00,WeatherDisplay:10.34,2013-08-25 23:03:00,
2013-08-25 19:08:00,67.1,50.4,30.36,West,265,0.0,0.0,55,0.00,CLR,CLR,0.00,WeatherDisplay:10.34,2013-08-25 23:08:00,
2013-08-25 19:13:00,66.9,50.2,30.36,West,265,0.0,0.0,55,0.00,CLR,CLR,0.00,WeatherDisplay:10.34,2013-08-25 23:13:00,
2013-08-25 19:18:00,66.7,50.5,30.36,West,265,0.0,0.0,56,0.00,CLR,CLR,0.00,WeatherDisplay:10.34,2013-08-25 23:18:00,
2013-08-25 19:23:00,66.6,50.4,30.36,West,264,0.0,0.0,56,0.00,CLR,CLR,0.00,WeatherDisplay:10.34,2013-08-25 23:23:00,
2013-08-25 19:28:00,66.4,50.7,30.36,West,265,0.0,0.0,57,0.00,CLR,CLR,0.00,WeatherDisplay:10.34,2013-08-25 23:28:00,
2013-08-25 19:33:00,66.0,50.3,30.36,West,265,0.0,0.0,57,0.00,CLR,CLR,0.00,WeatherDisplay:10.34,2013-08-25 23:33:00,
2013-08-25 19:38:00,65.8,50.6,30.36,West,265,0.0,0.0,58,0.00,CLR,CLR,0.00,WeatherDisplay:10.34,2013-08-25 23:38:00,
2013-08-25 19:43:00,65.8,50.6,30.36,West,264,0.0,0.0,58,0.00,CLR,CLR,0.00,WeatherDisplay:10.34,2013-08-25 23:43:00,
2013-08-25 19:48:00,65.7,50.5,30.36,West,264,0.0,0.0,58,0.00,CLR,CLR,0.00,WeatherDisplay:10.34,2013-08-25 23:48:00,
2013-08-25 19:53:00,65.5,50.3,30.36,West,264,0.0,0.0,58,0.00,CLR,CLR,0.00,WeatherDisplay:10.34,2013-08-25 23:53:00,
2013-08-25 19:58:00,65.3,50.6,30.36,West,264,0.0,0.0,59,0.00,CLR,CLR,0.00,WeatherDisplay:10.34,2013-08-25 23:58:00,
2013-08-25 20:03:00,65.1,50.4,30.36,West,264,0.0,0.0,59,0.00,FEW,FEW,0.00,WeatherDisplay:10.34,2013-08-26 00:03:00,
2013-08-25 20:08:00,64.9,50.3,30.36,West,264,0.0,0.0,59,0.00,FEW,FEW,0.00,WeatherDisplay:10.34,2013-08-26 00:08:00,
2013-08-25 20:13:00,64.9,50.7,30.36,West,264,0.0,0.0,60,0.00,FEW,FEW,0.00,WeatherDisplay:10.34,2013-08-26 00:13:00,
2013-08-25 20:18:00,64.8,50.5,30.36,West,264,0.0,0.0,60,0.00,FEW,FEW,0.00,WeatherDisplay:10.34,2013-08-26 00:18:00,
2013-08-25 20:23:00,64.6,50.8,30.36,West,264,0.0,0.0,61,0.00,FEW,FEW,0.00,WeatherDisplay:10.34,2013-08-26 00:23:00,
2013-08-25 20:28:00,64.4,50.7,30.36,West,264,0.0,0.0,61,0.00,FEW,FEW,0.00,WeatherDisplay:10.34,2013-08-26 00:28:00,
2013-08-25 20:33:00,64.4,51.1,30.35,West,264,0.0,0.0,62,0.00,FEW,FEW,0.00,WeatherDisplay:10.34,2013-08-26 00:33:00,
2013-08-25 20:38:00,64.2,50.9,30.35,West,264,0.0,0.0,62,0.00,FEW,FEW,0.00,WeatherDisplay:10.34,2013-08-26 00:38:00,
2013-08-25 20:43:00,64.0,50.8,30.35,West,264,0.0,0.0,62,0.00,FEW,FEW,0.00,WeatherDisplay:10.34,2013-08-26 00:43:00,
2013-08-25 20:48:00,63.9,50.6,30.35,West,264,0.0,0.0,62,0.00,FEW,FEW,0.00,WeatherDisplay:10.34,2013-08-26 00:48:00,
2013-08-25 20:53:00,63.9,50.6,30.35,West,264,0.0,0.0,62,0.00,FEW,FEW,0.00,WeatherDisplay:10.34,2013-08-26 00:53:00,
2013-08-25 20:58:00,63.7,50.4,30.35,West,264,0.0,0.0,62,0.00,FEW,FEW,0.00,WeatherDisplay:10.34,2013-08-26 00:58:00,
2013-08-25 21:03:00,63.5,50.2,30.35,West,264,0.0,0.0,62,0.00,CLR,CLR,0.00,WeatherDisplay:10.34,2013-08-26 01:03:00,
2013-08-25 21:08:00,63.3,50.5,30.35,West,264,0.0,0.0,63,0.00,CLR,CLR,0.00,WeatherDisplay:10.34,2013-08-26 01:08:00,
2013-08-25 21:13:00,63.1,50.8,30.35,West,264,0.0,0.0,64,0.00,CLR,CLR,0.00,WeatherDisplay:10.34,2013-08-26 01:13:00,
2013-08-25 21:18:00,63.1,51.2,30.35,West,264,0.0,0.0,65,0.00,CLR,CLR,0.00,WeatherDisplay:10.34,2013-08-26 01:18:00,
2013-08-25 21:23:00,63.0,51.0,30.35,West,264,0.0,0.0,65,0.00,CLR,CLR,0.00,WeatherDisplay:10.34,2013-08-26 01:23:00,
2013-08-25 21:28:00,63.0,51.0,30.35,West,264,0.0,0.0,65,0.00,CLR,CLR,0.00,WeatherDisplay:10.34,2013-08-26 01:28:00,
2013-08-25 21:33:00,63.0,51.0,30.32,West,264,0.0,0.0,65,0.00,CLR,CLR,0.00,WeatherDisplay:10.34,2013-08-26 01:33:00,
2013-08-25 21:38:00,63.0,51.0,30.32,West,264,0.0,0.0,65,0.00,CLR,CLR,0.00,WeatherDisplay:10.34,2013-08-26 01:38:00,
2013-08-25 21:43:00,63.0,51.4,30.32,West,264,0.0,0.0,66,0.00,CLR,CLR,0.00,WeatherDisplay:10.34,2013-08-26 01:43:00,
2013-08-25 21:48:00,63.0,51.4,30.32,West,264,0.0,0.0,66,0.00,CLR,CLR,0.00,WeatherDisplay:10.34,2013-08-26 01:48:00,
2013-08-25 21:53:00,62.8,50.8,30.32,West,264,0.0,0.0,65,0.00,CLR,CLR,0.00,WeatherDisplay:10.34,2013-08-26 01:53:00,
2013-08-25 21:58:00,62.6,50.7,30.32,West,264,0.0,0.0,65,0.00,CLR,CLR,0.00,WeatherDisplay:10.34,2013-08-26 01:58:00,
2013-08-25 22:03:00,62.6,51.1,30.32,West,267,0.0,3.0,66,0.00,CLR,CLR,0.00,WeatherDisplay:10.34,2013-08-26 02:03:00,
2013-08-25 22:08:00,62.4,50.9,30.32,West,267,0.0,0.0,66,0.00,CLR,CLR,0.00,WeatherDisplay:10.34,2013-08-26 02:08:00,
2013-08-25 22:13:00,62.4,50.5,30.32,West,267,0.0,0.0,65,0.00,CLR,CLR,0.00,WeatherDisplay:10.34,2013-08-26 02:13:00,
2013-08-25 22:18:00,62.4,50.9,30.32,West,267,0.0,0.0,66,0.00,CLR,CLR,0.00,WeatherDisplay:10.34,2013-08-26 02:18:00,
2013-08-25 22:23:00,62.2,50.7,30.32,West,267,0.0,0.0,66,0.00,CLR,CLR,0.00,WeatherDisplay:10.34,2013-08-26 02:23:00,
2013-08-25 22:28:00,62.2,50.3,30.32,West,267,0.0,0.0,65,0.00,CLR,CLR,0.00,WeatherDisplay:10.34,2013-08-26 02:28:00,
2013-08-25 22:33:00,62.2,50.3,30.32,West,267,0.0,0.0,65,0.00,CLR,CLR,0.00,WeatherDisplay:10.34,2013-08-26 02:33:00,
2013-08-25 22:38:00,62.2,49.9,30.32,West,267,0.0,0.0,64,0.00,CLR,CLR,0.00,WeatherDisplay:10.34,2013-08-26 02:38:00,
2013-08-25 22:43:00,62.1,49.3,30.32,West,267,0.0,0.0,63,0.00,CLR,CLR,0.00,WeatherDisplay:10.34,2013-08-26 02:43:00,
2013-08-25 22:48:00,62.1,49.7,30.32,West,267,0.0,0.0,64,0.00,CLR,CLR,0.00,WeatherDisplay:10.34,2013-08-26 02:48:00,
2013-08-25 22:53:00,62.1,49.7,30.32,West,267,0.0,0.0,64,0.00,CLR,CLR,0.00,WeatherDisplay:10.34,2013-08-26 02:53:00,
2013-08-25 22:58:00,62.2,49.5,30.32,West,267,0.0,0.0,63,0.00,CLR,CLR,0.00,WeatherDisplay:10.34,2013-08-26 02:58:00,
2013-08-25 23:03:00,62.1,48.9,30.32,West,267,0.0,0.0,62,0.00,CLR,CLR,0.00,WeatherDisplay:10.34,2013-08-26 03:03:00,
2013-08-25 23:08:00,62.1,48.9,30.32,West,267,0.0,0.0,62,0.00,CLR,CLR,0.00,WeatherDisplay:10.34,2013-08-26 03:08:00,
2013-08-25 23:13:00,62.1,48.9,30.32,West,267,0.0,0.0,62,0.00,CLR,CLR,0.00,WeatherDisplay:10.34,2013-08-26 03:13:00,
2013-08-25 23:18:00,62.1,48.9,30.32,West,267,0.0,0.0,62,0.00,CLR,CLR,0.00,WeatherDisplay:10.34,2013-08-26 03:18:00,
2013-08-25 23:23:00,62.1,48.9,30.32,West,267,0.0,0.0,62,0.00,CLR,CLR,0.00,WeatherDisplay:10.34,2013-08-26 03:23:00,
2013-08-25 23:28:00,62.1,48.4,30.32,West,267,0.0,0.0,61,0.00,CLR,CLR,0.00,WeatherDisplay:10.34,2013-08-26 03:28:00,
2013-08-25 23:33:00,62.1,48.4,30.32,West,267,0.0,0.0,61,0.00,CLR,CLR,0.00,WeatherDisplay:10.34,2013-08-26 03:33:00,
2013-08-25 23:38:00,62.1,48.4,30.32,West,267,0.0,0.0,61,0.00,CLR,CLR,0.00,WeatherDisplay:10.34,2013-08-26 03:38:00,
2013-08-25 23:43:00,62.1,48.9,30.31,West,267,0.0,0.0,62,0.00,CLR,CLR,0.00,WeatherDisplay:10.34,2013-08-26 03:43:00,
2013-08-25 23:48:00,61.9,48.7,30.31,West,267,0.0,0.0,62,0.00,CLR,CLR,0.00,WeatherDisplay:10.34,2013-08-26 03:48:00,
2013-08-25 23:53:00,61.9,48.7,30.31,West,267,0.0,0.0,62,0.00,CLR,CLR,0.00,WeatherDisplay:10.34,2013-08-26 03:53:00,
2013-08-25 23:58:00,61.9,48.7,30.31,West,267,0.0,0.0,62,0.00,CLR,CLR,0.00,WeatherDisplay:10.34,2013-08-26 03:58:00,